Location: Stoke Bliss
(52.2667°N, 2.5167°W)
Time: 21:39:38
(UTC+00:00)

CZ-4B R/B - Pass Details

Date: 03 March 2021
Orbit: 388 x 454 km, 97.6° (Epoch: 15 April)

Event Time Altitude Azimuth Distance (km) Brightness Sun altitude
Rises 18:36:58 0° 13° (NNE) 2,296 4.8 -7.5°
Reaches altitude 10° 18:38:56 10° 13° (NNE) 1,436 3.8 -7.8°
Maximum altitude 18:42:00 83° 286° (WNW) 402 1.2 -8.2°
Drops below altitude 10° 18:45:03 10° 198° (SSW) 1,438 4.2 -8.7°
Sets 18:47:01 0° 197° (SSW) 2,298 5.2 -9.0°
